Time,TemperatureF,DewpointF,PressureIn,WindDirection,WindDirectionDegrees,WindSpeedMPH,WindSpeedGustMPH,Humidity,HourlyPrecipIn,Conditions,Clouds,dailyrainin,SoftwareType,DateUTC
2013-05-13 00:01:00,56.3,36.3,29.99,NNW,340,6.0,15.0,47,0.00,,CLR,0.00,VWS V14.01,2013-05-13 04:01:00,
2013-05-13 00:02:00,56.3,35.8,29.99,WNW,301,11.0,15.0,46,0.00,,CLR,0.00,VWS V14.01,2013-05-13 04:02:00,
2013-05-13 00:07:00,56.2,35.2,29.99,NNW,334,15.0,18.0,45,0.00,,CLR,0.00,VWS V14.01,2013-05-13 04:07:00,
2013-05-13 00:12:00,56.1,36.2,29.99,NW,317,10.0,17.0,47,0.00,,CLR,0.00,VWS V14.01,2013-05-13 04:12:00,
2013-05-13 00:17:00,56.0,35.5,29.99,NW,312,12.0,18.0,46,0.00,,CLR,0.00,VWS V14.01,2013-05-13 04:17:00,
2013-05-13 00:22:00,55.8,35.9,29.99,North,355,17.0,18.0,47,0.00,,CLR,0.00,VWS V14.01,2013-05-13 04:22:00,
2013-05-13 00:27:00,55.7,36.8,29.99,NNW,331,7.0,15.0,49,0.00,,CLR,0.00,VWS V14.01,2013-05-13 04:27:00,
2013-05-13 00:32:00,55.6,37.8,30.00,WNW,303,6.0,13.0,51,0.00,,CLR,0.00,VWS V14.01,2013-05-13 04:32:00,
2013-05-13 00:37:00,55.5,35.1,30.00,NNW,340,12.0,15.0,46,0.00,,CLR,0.00,VWS V14.01,2013-05-13 04:37:00,
2013-05-13 00:42:00,55.5,34.5,30.00,NW,326,10.0,17.0,45,0.00,,CLR,0.00,VWS V14.01,2013-05-13 04:42:00,
2013-05-13 00:47:00,55.6,36.2,30.00,NW,317,11.0,13.0,48,0.00,,CLR,0.00,VWS V14.01,2013-05-13 04:47:00,
2013-05-13 00:52:00,55.5,34.5,30.00,NW,326,11.0,21.0,45,0.00,,CLR,0.00,VWS V14.01,2013-05-13 04:52:00,
2013-05-13 00:57:00,55.5,35.1,30.00,NW,307,5.0,14.0,46,0.00,,CLR,0.00,VWS V14.01,2013-05-13 04:57:00,
2013-05-13 01:02:00,55.3,36.5,30.00,WNW,294,5.0,12.0,49,0.00,,CLR,0.00,VWS V14.01,2013-05-13 05:02:00,
2013-05-13 01:07:00,55.2,35.9,30.00,WNW,298,7.0,11.0,48,0.00,,CLR,0.00,VWS V14.01,2013-05-13 05:07:00,
2013-05-13 01:12:00,55.1,35.2,30.00,NNW,331,10.0,13.0,47,0.00,,CLR,0.00,VWS V14.01,2013-05-13 05:12:00,
2013-05-13 01:17:00,55.0,35.7,30.00,NNW,346,8.0,17.0,48,0.00,,CLR,0.00,VWS V14.01,2013-05-13 05:17:00,
2013-05-13 01:22:00,54.9,37.1,30.00,WNW,284,4.0,11.0,51,0.00,,CLR,0.00,VWS V14.01,2013-05-13 05:22:00,
2013-05-13 01:27:00,54.6,36.3,30.00,West,277,12.0,12.0,50,0.00,,CLR,0.00,VWS V14.01,2013-05-13 05:27:00,
2013-05-13 01:32:00,54.3,36.6,30.00,NNW,333,6.0,10.0,51,0.00,,CLR,0.00,VWS V14.01,2013-05-13 05:32:00,
2013-05-13 01:37:00,54.2,36.0,30.00,NW,317,6.0,12.0,50,0.00,,CLR,0.00,VWS V14.01,2013-05-13 05:37:00,
2013-05-13 01:42:00,54.1,35.9,30.00,NNW,342,5.0,11.0,50,0.00,,CLR,0.00,VWS V14.01,2013-05-13 05:42:00,
2013-05-13 01:47:00,54.0,35.8,30.00,WNW,288,5.0,13.0,50,0.00,,CLR,0.00,VWS V14.01,2013-05-13 05:47:00,
2013-05-13 01:52:00,54.0,36.8,30.00,WNW,301,12.0,13.0,52,0.00,,CLR,0.00,VWS V14.01,2013-05-13 05:52:00,
2013-05-13 01:58:00,54.0,36.3,30.00,NW,307,4.0,10.0,51,0.00,,CLR,0.00,VWS V14.01,2013-05-13 05:58:00,
2013-05-13 02:03:00,54.0,35.8,30.00,NW,307,6.0,11.0,50,0.00,,CLR,0.00,VWS V14.01,2013-05-13 06:03:00,
2013-05-13 02:08:00,54.0,36.3,30.00,West,281,8.0,8.0,51,0.00,,CLR,0.00,VWS V14.01,2013-05-13 06:08:00,
2013-05-13 02:13:00,53.9,36.2,30.00,NNW,334,4.0,15.0,51,0.00,,CLR,0.00,VWS V14.01,2013-05-13 06:13:00,
2013-05-13 02:18:00,53.9,35.2,30.00,NW,317,8.0,10.0,49,0.00,,CLR,0.00,VWS V14.01,2013-05-13 06:18:00,
2013-05-13 02:23:00,53.9,35.7,30.00,WNW,296,4.0,7.0,50,0.00,,CLR,0.00,VWS V14.01,2013-05-13 06:23:00,
2013-05-13 02:28:00,53.8,35.1,29.99,NW,312,3.0,9.0,49,0.00,,CLR,0.00,VWS V14.01,2013-05-13 06:28:00,
2013-05-13 02:33:00,53.7,34.5,29.99,NW,321,4.0,12.0,48,0.00,,CLR,0.00,VWS V14.01,2013-05-13 06:33:00,
2013-05-13 02:38:00,53.7,35.0,29.99,West,281,6.0,7.0,49,0.00,,CLR,0.00,VWS V14.01,2013-05-13 06:38:00,
2013-05-13 02:43:00,53.5,34.8,30.00,WNW,287,5.0,11.0,49,0.00,,CLR,0.00,VWS V14.01,2013-05-13 06:43:00,
2013-05-13 02:48:00,53.5,34.8,30.00,West,277,5.0,12.0,49,0.00,,CLR,0.00,VWS V14.01,2013-05-13 06:48:00,
2013-05-13 02:53:00,53.5,34.8,30.00,WNW,298,6.0,10.0,49,0.00,,CLR,0.00,VWS V14.01,2013-05-13 06:53:00,
2013-05-13 02:58:00,53.4,35.2,30.00,NNW,331,7.0,12.0,50,0.00,,CLR,0.00,VWS V14.01,2013-05-13 06:58:00,
2013-05-13 03:03:00,53.2,35.6,30.00,WNW,300,12.0,13.0,51,0.00,,CLR,0.00,VWS V14.01,2013-05-13 07:03:00,
2013-05-13 03:08:00,53.3,35.7,30.00,NW,323,6.0,10.0,51,0.00,,CLR,0.00,VWS V14.01,2013-05-13 07:08:00,
2013-05-13 03:13:00,53.2,35.6,30.00,NW,321,6.0,13.0,51,0.00,,CLR,0.00,VWS V14.01,2013-05-13 07:13:00,
2013-05-13 03:18:00,53.2,36.0,30.00,WNW,287,2.0,6.0,52,0.00,,CLR,0.00,VWS V14.01,2013-05-13 07:18:00,
2013-05-13 03:23:00,53.1,35.5,29.99,WNW,290,5.0,10.0,51,0.00,,CLR,0.00,VWS V14.01,2013-05-13 07:23:00,
2013-05-13 03:28:00,53.0,35.4,30.00,WNW,283,6.0,11.0,51,0.00,,CLR,0.00,VWS V14.01,2013-05-13 07:28:00,
2013-05-13 03:33:00,53.1,36.0,30.00,WNW,302,7.0,7.0,52,0.00,,CLR,0.00,VWS V14.01,2013-05-13 07:33:00,
2013-05-13 03:38:00,53.0,36.3,30.00,West,278,7.0,7.0,53,0.00,,CLR,0.00,VWS V14.01,2013-05-13 07:38:00,
2013-05-13 03:43:00,53.0,34.9,30.01,West,277,7.0,11.0,50,0.00,,CLR,0.00,VWS V14.01,2013-05-13 07:43:00,
2013-05-13 03:48:00,53.1,35.0,30.01,NW,307,9.0,13.0,50,0.00,,CLR,0.00,VWS V14.01,2013-05-13 07:48:00,
2013-05-13 03:53:00,53.2,36.0,30.00,NW,326,8.0,11.0,52,0.00,,CLR,0.00,VWS V14.01,2013-05-13 07:53:00,
2013-05-13 03:58:00,53.2,35.6,30.00,NNW,346,6.0,16.0,51,0.00,,CLR,0.00,VWS V14.01,2013-05-13 07:58:00,
2013-05-13 04:03:00,53.3,36.1,30.00,NW,321,7.0,12.0,52,0.00,,CLR,0.00,VWS V14.01,2013-05-13 08:03:00,
2013-05-13 04:08:00,53.4,34.7,30.00,WNW,289,7.0,14.0,49,0.00,,CLR,0.00,VWS V14.01,2013-05-13 08:08:00,
2013-05-13 04:13:00,53.3,35.7,30.01,WNW,295,6.0,10.0,51,0.00,,CLR,0.00,VWS V14.01,2013-05-13 08:13:00,
2013-05-13 04:18:00,53.2,35.1,30.01,NW,307,14.0,14.0,50,0.00,,CLR,0.00,VWS V14.01,2013-05-13 08:18:00,
2013-05-13 04:23:00,53.1,35.0,30.01,WNW,284,11.0,12.0,50,0.00,,CLR,0.00,VWS V14.01,2013-05-13 08:23:00,
2013-05-13 04:28:00,53.0,35.9,30.02,WNW,302,9.0,11.0,52,0.00,,CLR,0.00,VWS V14.01,2013-05-13 08:28:00,
2013-05-13 04:33:00,52.9,35.3,30.02,West,271,7.0,14.0,51,0.00,,CLR,0.00,VWS V14.01,2013-05-13 08:33:00,
2013-05-13 04:38:00,53.0,35.9,30.02,NNW,329,10.0,13.0,52,0.00,,CLR,0.00,VWS V14.01,2013-05-13 08:38:00,
2013-05-13 04:43:00,52.9,35.3,30.02,WNW,287,10.0,13.0,51,0.00,,CLR,0.00,VWS V14.01,2013-05-13 08:43:00,
2013-05-13 04:48:00,52.8,35.7,30.02,NW,324,6.0,10.0,52,0.00,,CLR,0.00,VWS V14.01,2013-05-13 08:48:00,
2013-05-13 04:53:00,52.8,35.7,30.02,NW,323,7.0,12.0,52,0.00,,CLR,0.00,VWS V14.01,2013-05-13 08:53:00,
2013-05-13 04:58:00,52.6,36.0,30.02,NW,307,5.0,11.0,53,0.00,,CLR,0.00,VWS V14.01,2013-05-13 08:58:00,
2013-05-13 05:03:00,52.7,35.6,30.02,NW,321,3.0,8.0,52,0.00,,CLR,0.00,VWS V14.01,2013-05-13 09:03:00,
2013-05-13 05:08:00,52.6,35.5,30.03,WNW,290,6.0,13.0,52,0.00,,CLR,0.00,VWS V14.01,2013-05-13 09:08:00,
2013-05-13 05:13:00,52.6,35.0,30.02,West,270,4.0,15.0,51,0.00,,CLR,0.00,VWS V14.01,2013-05-13 09:13:00,
2013-05-13 05:18:00,52.6,35.5,30.02,WNW,282,3.0,8.0,52,0.00,,CLR,0.00,VWS V14.01,2013-05-13 09:18:00,
2013-05-13 05:23:00,52.6,34.5,30.03,North,359,5.0,8.0,50,0.00,,CLR,0.00,VWS V14.01,2013-05-13 09:23:00,
2013-05-13 05:28:00,52.5,34.9,30.03,NNW,341,9.0,10.0,51,0.00,,CLR,0.00,VWS V14.01,2013-05-13 09:28:00,
2013-05-13 05:33:00,52.4,34.8,30.03,NW,317,2.0,12.0,51,0.00,,CLR,0.00,VWS V14.01,2013-05-13 09:33:00,
2013-05-13 05:38:00,52.3,34.7,30.03,NW,312,2.0,8.0,51,0.00,,CLR,0.00,VWS V14.01,2013-05-13 09:38:00,
2013-05-13 05:43:00,52.2,34.1,30.03,NW,307,6.0,13.0,50,0.00,,CLR,0.00,VWS V14.01,2013-05-13 09:43:00,
2013-05-13 05:48:00,52.2,34.6,30.03,West,273,4.0,8.0,51,0.00,,CLR,0.00,VWS V14.01,2013-05-13 09:48:00,
2013-05-13 05:53:00,52.0,34.5,30.03,NW,326,6.0,6.0,51,0.00,,CLR,0.00,VWS V14.01,2013-05-13 09:53:00,
2013-05-13 05:58:00,51.9,34.4,30.04,West,281,2.0,9.0,51,0.00,,CLR,0.00,VWS V14.01,2013-05-13 09:58:00,
2013-05-13 06:03:00,52.0,34.9,30.04,NNW,327,2.0,7.0,52,0.00,,CLR,0.00,VWS V14.01,2013-05-13 10:03:00,
2013-05-13 06:08:00,52.0,34.9,30.04,NW,321,4.0,6.0,52,0.00,,CLR,0.00,VWS V14.01,2013-05-13 10:08:00,
2013-05-13 06:13:00,52.1,34.0,30.04,WNW,290,2.0,5.0,50,0.00,,CLR,0.00,VWS V14.01,2013-05-13 10:13:00,
2013-05-13 06:18:00,52.2,34.1,30.04,WNW,297,10.0,15.0,50,0.00,,CLR,0.00,VWS V14.01,2013-05-13 10:18:00,
2013-05-13 06:23:00,52.4,34.3,30.05,WNW,298,2.0,6.0,50,0.00,,CLR,0.00,VWS V14.01,2013-05-13 10:23:00,
2013-05-13 06:28:00,52.5,33.9,30.05,WNW,294,3.0,10.0,49,0.00,,CLR,0.00,VWS V14.01,2013-05-13 10:28:00,
2013-05-13 06:33:00,52.5,34.4,30.05,NNW,335,5.0,6.0,50,0.00,,CLR,0.00,VWS V14.01,2013-05-13 10:33:00,
2013-05-13 06:38:00,52.7,35.6,30.05,WNW,290,3.0,8.0,52,0.00,,CLR,0.00,VWS V14.01,2013-05-13 10:38:00,
2013-05-13 06:43:00,52.7,36.1,30.06,West,269,4.0,7.0,53,0.00,,CLR,0.00,VWS V14.01,2013-05-13 10:43:00,
2013-05-13 06:48:00,52.6,36.5,30.06,West,275,6.0,9.0,54,0.00,,CLR,0.00,VWS V14.01,2013-05-13 10:48:00,
2013-05-13 06:53:00,52.6,36.0,30.06,West,259,10.0,10.0,53,0.00,,CLR,0.00,VWS V14.01,2013-05-13 10:53:00,
2013-05-13 06:58:00,52.7,35.6,30.06,WSW,242,4.0,14.0,52,0.00,,CLR,0.00,VWS V14.01,2013-05-13 10:58:00,
2013-05-13 07:03:00,52.7,35.1,30.06,West,267,14.0,14.0,51,0.00,,CLR,0.00,VWS V14.01,2013-05-13 11:03:00,
2013-05-13 07:08:00,52.7,35.6,30.06,West,269,6.0,16.0,52,0.00,,CLR,0.00,VWS V14.01,2013-05-13 11:08:00,
2013-05-13 07:13:00,52.6,36.0,30.06,West,271,10.0,16.0,53,0.00,,CLR,0.00,VWS V14.01,2013-05-13 11:13:00,
2013-05-13 07:19:00,52.6,36.0,30.06,West,273,7.0,12.0,53,0.00,,CLR,0.00,VWS V14.01,2013-05-13 11:19:00,
2013-05-13 07:24:00,52.7,36.5,30.06,West,263,9.0,12.0,54,0.00,,CLR,0.00,VWS V14.01,2013-05-13 11:24:00,
2013-05-13 07:29:00,52.8,36.6,30.07,West,270,5.0,11.0,54,0.00,,CLR,0.00,VWS V14.01,2013-05-13 11:29:00,
2013-05-13 07:34:00,53.0,36.3,30.07,WNW,287,5.0,11.0,53,0.00,,CLR,0.00,VWS V14.01,2013-05-13 11:34:00,
2013-05-13 07:39:00,53.0,36.3,30.07,NNW,327,7.0,15.0,53,0.00,,CLR,0.00,VWS V14.01,2013-05-13 11:39:00,
2013-05-13 07:44:00,53.0,36.3,30.07,WNW,289,7.0,12.0,53,0.00,,CLR,0.00,VWS V14.01,2013-05-13 11:44:00,
2013-05-13 07:49:00,53.0,35.9,30.07,West,267,3.0,13.0,52,0.00,,CLR,0.00,VWS V14.01,2013-05-13 11:49:00,
2013-05-13 07:54:00,53.0,34.9,30.07,WNW,284,11.0,12.0,50,0.00,,CLR,0.00,VWS V14.01,2013-05-13 11:54:00,
2013-05-13 07:59:00,53.2,36.0,30.07,WSW,244,6.0,10.0,52,0.00,,CLR,0.00,VWS V14.01,2013-05-13 11:59:00,
2013-05-13 08:04:00,53.4,35.2,30.08,West,281,5.0,12.0,50,0.00,,CLR,0.00,VWS V14.01,2013-05-13 12:04:00,
2013-05-13 08:09:00,53.6,36.4,30.07,West,269,3.0,9.0,52,0.00,,CLR,0.00,VWS V14.01,2013-05-13 12:09:00,
2013-05-13 08:14:00,53.9,35.7,30.08,West,273,5.0,7.0,50,0.00,,CLR,0.00,VWS V14.01,2013-05-13 12:14:00,
2013-05-13 08:19:00,54.1,36.9,30.08,West,261,6.0,11.0,52,0.00,,CLR,0.00,VWS V14.01,2013-05-13 12:19:00,
2013-05-13 08:24:00,54.1,36.4,30.08,WNW,298,4.0,7.0,51,0.00,,CLR,0.00,VWS V14.01,2013-05-13 12:24:00,
2013-05-13 08:29:00,54.2,34.4,30.08,WNW,292,3.0,9.0,47,0.00,,CLR,0.00,VWS V14.01,2013-05-13 12:29:00,
2013-05-13 08:34:00,54.1,34.9,30.08,WNW,292,7.0,11.0,48,0.00,,CLR,0.00,VWS V14.01,2013-05-13 12:34:00,
2013-05-13 08:39:00,54.0,33.2,30.08,West,277,6.0,9.0,45,0.00,,CLR,0.00,VWS V14.01,2013-05-13 12:39:00,
2013-05-13 08:44:00,54.1,34.9,30.08,WSW,246,7.0,7.0,48,0.00,,SKC,0.00,VWS V14.01,2013-05-13 12:44:00,
2013-05-13 08:49:00,54.1,34.9,30.08,WSW,251,5.0,5.0,48,0.00,,SKC,0.00,VWS V14.01,2013-05-13 12:49:00,
2013-05-13 08:54:00,54.2,35.0,30.08,SW,236,6.0,13.0,48,0.00,,SKC,0.00,VWS V14.01,2013-05-13 12:54:00,
2013-05-13 08:59:00,53.9,34.2,30.08,WSW,254,7.0,11.0,47,0.00,,SKC,0.00,VWS V14.01,2013-05-13 12:59:00,
2013-05-13 09:04:00,53.9,33.6,30.08,WNW,302,3.0,14.0,46,0.00,,SKC,0.00,VWS V14.01,2013-05-13 13:04:00,
2013-05-13 09:09:00,54.1,32.7,30.08,NW,323,7.0,13.0,44,0.00,,SKC,0.00,VWS V14.01,2013-05-13 13:09:00,
2013-05-13 09:14:00,54.2,32.2,30.08,WNW,302,4.0,7.0,43,0.00,,SKC,0.00,VWS V14.01,2013-05-13 13:14:00,
2013-05-13 09:19:00,54.5,35.8,30.08,WNW,299,11.0,11.0,49,0.00,,SKC,0.00,VWS V14.01,2013-05-13 13:19:00,
2013-05-13 09:24:00,54.6,33.7,30.08,West,271,5.0,12.0,45,0.00,,SKC,0.00,VWS V14.01,2013-05-13 13:24:00,
2013-05-13 09:29:00,54.6,33.1,30.08,West,279,6.0,14.0,44,0.00,,SKC,0.00,VWS V14.01,2013-05-13 13:29:00,
2013-05-13 09:34:00,54.9,34.5,30.08,WSW,250,7.0,12.0,46,0.00,,SKC,0.00,VWS V14.01,2013-05-13 13:34:00,
2013-05-13 09:39:00,54.9,33.4,30.08,WSW,240,9.0,12.0,44,0.00,,SKC,0.00,VWS V14.01,2013-05-13 13:39:00,
2013-05-13 09:44:00,55.0,34.1,30.08,West,268,7.0,10.0,45,0.00,,SCT100,0.00,VWS V14.01,2013-05-13 13:44:00,
2013-05-13 09:49:00,55.2,35.3,30.08,WNW,298,8.0,14.0,47,0.00,,SCT100,0.00,VWS V14.01,2013-05-13 13:49:00,
2013-05-13 09:54:00,55.3,34.3,30.08,WSW,242,4.0,9.0,45,0.00,,SCT100,0.00,VWS V14.01,2013-05-13 13:54:00,
2013-05-13 09:59:00,55.1,35.2,30.08,WNW,295,5.0,7.0,47,0.00,,SCT100,0.00,VWS V14.01,2013-05-13 13:59:00,
2013-05-13 10:04:00,55.1,35.8,30.08,SW,226,5.0,12.0,48,0.00,,SCT100,0.00,VWS V14.01,2013-05-13 14:04:00,
2013-05-13 10:09:00,55.3,37.0,30.08,West,269,9.0,11.0,50,0.00,,SCT100,0.00,VWS V14.01,2013-05-13 14:09:00,
2013-05-13 10:14:00,55.3,35.4,30.08,WNW,284,10.0,15.0,47,0.00,,SCT100,0.00,VWS V14.01,2013-05-13 14:14:00,
2013-05-13 10:19:00,55.3,37.0,30.08,West,263,9.0,14.0,50,0.00,,SCT100,0.00,VWS V14.01,2013-05-13 14:19:00,
2013-05-13 10:24:00,55.4,36.1,30.08,WNW,290,11.0,13.0,48,0.00,,SCT100,0.00,VWS V14.01,2013-05-13 14:24:00,
2013-05-13 10:29:00,55.6,36.2,30.08,WSW,251,3.0,15.0,48,0.00,,SCT100,0.00,VWS V14.01,2013-05-13 14:29:00,
2013-05-13 10:34:00,55.9,37.0,30.08,West,261,12.0,12.0,49,0.00,,SCT100,0.00,VWS V14.01,2013-05-13 14:34:00,
2013-05-13 10:39:00,56.2,36.3,30.08,West,271,6.0,14.0,47,0.00,,SCT100,0.00,VWS V14.01,2013-05-13 14:39:00,
2013-05-13 10:44:00,56.0,36.6,30.08,WNW,283,5.0,13.0,48,0.00,,SCT100,0.00,VWS V14.01,2013-05-13 14:44:00,
2013-05-13 10:49:00,55.9,34.9,30.08,West,261,7.0,15.0,45,0.00,,SCT100,0.00,VWS V14.01,2013-05-13 14:49:00,
2013-05-13 10:54:00,55.6,35.2,30.08,SW,229,10.0,16.0,46,0.00,,SCT100,0.00,VWS V14.01,2013-05-13 14:54:00,
2013-05-13 10:59:00,55.8,38.0,30.08,West,261,6.0,11.0,51,0.00,,SCT100,0.00,VWS V14.01,2013-05-13 14:59:00,
2013-05-13 11:04:00,55.8,35.3,30.08,WNW,291,10.0,12.0,46,0.00,,SCT100,0.00,VWS V14.01,2013-05-13 15:04:00,
2013-05-13 11:09:00,55.9,38.5,30.08,WSW,254,10.0,12.0,52,0.00,,SCT100,0.00,VWS V14.01,2013-05-13 15:09:00,
2013-05-13 11:14:00,56.1,35.6,30.08,WSW,257,16.0,21.0,46,0.00,,SCT100,0.00,VWS V14.01,2013-05-13 15:14:00,
2013-05-13 11:19:00,56.5,36.0,30.08,WSW,249,11.0,17.0,46,0.00,,SCT100,0.00,VWS V14.01,2013-05-13 15:19:00,
2013-05-13 11:24:00,56.5,36.5,30.07,WNW,290,7.0,15.0,47,0.00,,SCT100,0.00,VWS V14.01,2013-05-13 15:24:00,
2013-05-13 11:29:00,56.5,34.9,30.07,WSW,252,9.0,15.0,44,0.00,,SCT100,0.00,VWS V14.01,2013-05-13 15:29:00,
2013-05-13 11:34:00,56.2,36.3,30.07,WSW,251,12.0,16.0,47,0.00,,SCT100,0.00,VWS V14.01,2013-05-13 15:34:00,
2013-05-13 11:39:00,56.8,35.1,30.07,WSW,249,10.0,17.0,44,0.00,,SCT100,0.00,VWS V14.01,2013-05-13 15:39:00,
2013-05-13 11:44:00,57.3,35.0,30.07,NW,317,13.0,18.0,43,0.00,,SCT080,0.00,VWS V14.01,2013-05-13 15:44:00,
2013-05-13 11:49:00,57.3,36.7,30.07,WNW,302,17.0,18.0,46,0.00,,SCT080,0.00,VWS V14.01,2013-05-13 15:49:00,
2013-05-13 11:54:00,57.4,36.8,30.07,West,269,9.0,12.0,46,0.00,,SCT080,0.00,VWS V14.01,2013-05-13 15:54:00,
2013-05-13 11:59:00,57.5,35.2,30.07,NW,312,10.0,17.0,43,0.00,,SCT080,0.00,VWS V14.01,2013-05-13 15:59:00,
2013-05-13 12:04:00,57.2,33.1,30.07,WNW,283,11.0,19.0,40,0.00,,SCT080,0.00,VWS V14.01,2013-05-13 16:04:00,
2013-05-13 12:09:00,57.2,35.5,30.07,West,275,12.0,17.0,44,0.00,,SCT080,0.00,VWS V14.01,2013-05-13 16:09:00,
2013-05-13 12:14:00,57.3,33.8,30.07,WNW,288,6.0,15.0,41,0.00,,SCT080,0.00,VWS V14.01,2013-05-13 16:14:00,
2013-05-13 12:19:00,57.7,35.4,30.06,WSW,255,5.0,17.0,43,0.00,,SCT080,0.00,VWS V14.01,2013-05-13 16:19:00,
2013-05-13 12:24:00,58.3,35.9,30.06,NNW,334,10.0,18.0,43,0.00,,SCT080,0.00,VWS V14.01,2013-05-13 16:24:00,
2013-05-13 12:29:00,58.0,35.1,30.06,WNW,285,3.0,12.0,42,0.00,,SCT080,0.00,VWS V14.01,2013-05-13 16:29:00,
2013-05-13 12:34:00,58.0,38.4,30.06,NNW,334,6.0,13.0,48,0.00,,SCT080,0.00,VWS V14.01,2013-05-13 16:34:00,
2013-05-13 12:39:00,58.4,38.8,30.06,West,272,5.0,17.0,48,0.00,,SCT080,0.00,VWS V14.01,2013-05-13 16:39:00,
2013-05-13 12:44:00,59.0,36.0,30.06,West,280,14.0,15.0,42,0.00,,SCT080,0.00,VWS V14.01,2013-05-13 16:44:00,
2013-05-13 12:49:00,59.0,34.1,30.06,WNW,282,15.0,20.0,39,0.00,,SCT080,0.00,VWS V14.01,2013-05-13 16:49:00,
2013-05-13 12:54:00,58.6,36.8,30.06,West,274,6.0,15.0,44,0.01,,SCT080,0.01,VWS V14.01,2013-05-13 16:54:00,
2013-05-13 12:59:00,58.8,37.5,30.06,West,273,15.0,15.0,45,0.01,,SCT080,0.01,VWS V14.01,2013-05-13 16:59:00,
2013-05-13 13:04:00,59.1,38.9,30.06,West,269,13.0,14.0,47,0.01,,SCT080,0.01,VWS V14.01,2013-05-13 17:04:00,
2013-05-13 13:09:00,58.2,34.0,30.06,WNW,285,9.0,18.0,40,0.01,,SCT080,0.01,VWS V14.01,2013-05-13 17:09:00,
2013-05-13 13:14:00,57.3,33.2,30.06,NW,317,6.0,12.0,40,0.01,,SCT080,0.01,VWS V14.01,2013-05-13 17:14:00,
2013-05-13 13:19:00,57.6,37.0,30.05,WSW,258,4.0,14.0,46,0.01,,SCT080,0.01,VWS V14.01,2013-05-13 17:19:00,
2013-05-13 13:24:00,58.2,36.4,30.06,West,271,5.0,10.0,44,0.01,,SCT080,0.01,VWS V14.01,2013-05-13 17:24:00,
2013-05-13 13:29:00,58.3,35.9,30.05,WNW,298,6.0,14.0,43,0.01,,SCT080,0.01,VWS V14.01,2013-05-13 17:29:00,
2013-05-13 13:34:00,58.3,36.5,30.05,WNW,285,10.0,13.0,44,0.01,,SCT080,0.01,VWS V14.01,2013-05-13 17:34:00,
2013-05-13 13:40:00,58.3,35.3,30.05,West,262,11.0,15.0,42,0.01,,SCT080,0.01,VWS V14.01,2013-05-13 17:40:00,
2013-05-13 13:45:00,58.3,37.6,30.05,NW,312,7.0,10.0,46,0.01,,SCT150,0.01,VWS V14.01,2013-05-13 17:45:00,
2013-05-13 13:50:00,58.6,36.8,30.05,West,280,5.0,11.0,44,0.01,,SCT150,0.01,VWS V14.01,2013-05-13 17:50:00,
2013-05-13 13:55:00,58.5,36.1,30.05,West,273,10.0,14.0,43,0.01,,SCT150,0.01,VWS V14.01,2013-05-13 17:55:00,
2013-05-13 14:00:00,58.0,35.1,30.05,NNW,340,3.0,12.0,42,0.01,,SCT150,0.01,VWS V14.01,2013-05-13 18:00:00,
2013-05-13 14:05:00,57.5,36.3,30.05,NNW,329,13.0,14.0,45,0.00,,SCT150,0.01,VWS V14.01,2013-05-13 18:05:00,
2013-05-13 14:10:00,57.3,34.4,30.04,WNW,299,13.0,16.0,42,0.00,,SCT150,0.01,VWS V14.01,2013-05-13 18:10:00,
2013-05-13 14:15:00,57.3,36.7,30.04,West,281,4.0,10.0,46,0.00,,SCT150,0.01,VWS V14.01,2013-05-13 18:15:00,
2013-05-13 14:20:00,57.9,35.6,30.05,WNW,290,6.0,15.0,43,0.00,,SCT150,0.01,VWS V14.01,2013-05-13 18:20:00,
2013-05-13 14:25:00,58.2,36.4,30.04,WNW,294,16.0,21.0,44,0.00,,SCT150,0.01,VWS V14.01,2013-05-13 18:25:00,
2013-05-13 14:30:00,57.8,34.9,30.04,West,273,13.0,14.0,42,0.00,,SCT150,0.01,VWS V14.01,2013-05-13 18:30:00,
2013-05-13 14:35:00,58.4,35.4,30.04,NW,312,9.0,15.0,42,0.00,,SCT150,0.01,VWS V14.01,2013-05-13 18:35:00,
2013-05-13 14:40:00,58.9,36.5,30.04,NW,325,7.0,15.0,43,0.00,,SCT150,0.01,VWS V14.01,2013-05-13 18:40:00,
2013-05-13 14:45:00,58.9,34.6,30.04,WNW,283,7.0,15.0,40,0.00,,SCT070,0.01,VWS V14.01,2013-05-13 18:45:00,
2013-05-13 14:50:00,58.9,35.3,30.03,NW,312,7.0,11.0,41,0.00,,SCT070,0.01,VWS V14.01,2013-05-13 18:50:00,
2013-05-13 14:55:00,58.5,34.9,30.03,WNW,294,11.0,13.0,41,0.00,,SCT070,0.01,VWS V14.01,2013-05-13 18:55:00,
2013-05-13 15:00:00,58.0,34.5,30.03,NW,312,9.0,14.0,41,0.00,,SCT070,0.01,VWS V14.01,2013-05-13 19:00:00,
2013-05-13 15:05:00,58.0,35.7,30.03,NNW,336,5.0,10.0,43,0.00,,SCT070,0.01,VWS V14.01,2013-05-13 19:05:00,
2013-05-13 15:10:00,57.8,33.7,30.03,NW,307,4.0,14.0,40,0.00,,SCT070,0.01,VWS V14.01,2013-05-13 19:10:00,
2013-05-13 15:15:00,58.3,35.3,30.02,North,4,2.0,13.0,42,0.00,,SCT070,0.01,VWS V14.01,2013-05-13 19:15:00,
2013-05-13 15:20:00,58.9,35.3,30.03,NNW,331,9.0,11.0,41,0.00,,SCT070,0.01,VWS V14.01,2013-05-13 19:20:00,
2013-05-13 15:25:00,58.8,35.8,30.02,WNW,283,6.0,9.0,42,0.00,,SCT070,0.01,VWS V14.01,2013-05-13 19:25:00,
2013-05-13 15:30:00,58.1,34.5,30.02,West,278,2.0,10.0,41,0.00,,SCT070,0.01,VWS V14.01,2013-05-13 19:30:00,
2013-05-13 15:35:00,58.1,35.2,30.02,West,275,5.0,11.0,42,0.00,,SCT070,0.01,VWS V14.01,2013-05-13 19:35:00,
2013-05-13 15:40:00,58.3,31.5,30.02,West,268,3.0,13.0,36,0.00,,SCT060,0.01,VWS V14.01,2013-05-13 19:40:00,
2013-05-13 15:45:00,58.5,34.9,30.02,WNW,298,4.0,11.0,41,0.00,,SCT060,0.01,VWS V14.01,2013-05-13 19:45:00,
2013-05-13 15:50:00,58.2,33.4,30.02,WNW,283,4.0,13.0,39,0.00,,SCT060,0.01,VWS V14.01,2013-05-13 19:50:00,
2013-05-13 15:55:00,57.7,34.2,30.01,West,277,5.0,7.0,41,0.00,,SCT060,0.01,VWS V14.01,2013-05-13 19:55:00,
2013-05-13 16:00:00,57.3,32.6,30.01,WNW,299,3.0,10.0,39,0.00,,SCT060,0.01,VWS V14.01,2013-05-13 20:00:00,
2013-05-13 16:05:00,57.3,35.0,30.01,West,269,13.0,13.0,43,0.00,,SCT060,0.01,VWS V14.01,2013-05-13 20:05:00,
2013-05-13 16:10:00,58.1,33.3,30.01,NNW,336,7.0,21.0,39,0.00,,SCT060,0.01,VWS V14.01,2013-05-13 20:10:00,
2013-05-13 16:15:00,58.9,34.0,30.01,NNW,338,14.0,18.0,39,0.00,,SCT060,0.01,VWS V14.01,2013-05-13 20:15:00,
2013-05-13 16:20:00,59.2,34.3,30.01,NW,325,13.0,14.0,39,0.00,,SCT060,0.01,VWS V14.01,2013-05-13 20:20:00,
2013-05-13 16:25:00,59.3,35.0,30.01,West,267,5.0,16.0,40,0.00,,SCT060,0.01,VWS V14.01,2013-05-13 20:25:00,
2013-05-13 16:30:00,59.5,34.5,30.01,West,274,5.0,12.0,39,0.00,,SCT060,0.01,VWS V14.01,2013-05-13 20:30:00,
2013-05-13 16:35:00,59.2,33.0,30.01,WSW,252,5.0,17.0,37,0.00,,SCT060,0.01,VWS V14.01,2013-05-13 20:35:00,
2013-05-13 16:40:00,59.6,34.0,30.00,WSW,258,11.0,13.0,38,0.00,,SCT060,0.01,VWS V14.01,2013-05-13 20:40:00,
2013-05-13 16:45:00,59.7,34.1,30.00,NW,323,4.0,12.0,38,0.00,,SCT060,0.01,VWS V14.01,2013-05-13 20:45:00,
2013-05-13 16:50:00,59.8,32.8,30.00,WNW,289,9.0,15.0,36,0.00,,SCT060,0.01,VWS V14.01,2013-05-13 20:50:00,
2013-05-13 16:55:00,59.1,32.2,30.00,WNW,284,7.0,11.0,36,0.00,,SCT060,0.01,VWS V14.01,2013-05-13 20:55:00,
2013-05-13 17:00:00,58.5,33.7,30.00,West,267,6.0,11.0,39,0.00,,SCT060,0.01,VWS V14.01,2013-05-13 21:00:00,
2013-05-13 17:05:00,58.7,34.5,30.00,NNW,334,11.0,14.0,40,0.00,,SCT060,0.01,VWS V14.01,2013-05-13 21:05:00,
2013-05-13 17:10:00,58.4,37.7,30.00,NNW,340,14.0,15.0,46,0.00,,SCT060,0.01,VWS V14.01,2013-05-13 21:10:00,
2013-05-13 17:15:00,58.0,32.6,30.00,WNW,297,5.0,15.0,38,0.00,,SCT060,0.01,VWS V14.01,2013-05-13 21:15:00,
2013-05-13 17:20:00,57.9,32.5,30.00,WNW,287,1.0,9.0,38,0.00,,SCT060,0.01,VWS V14.01,2013-05-13 21:20:00,
2013-05-13 17:25:00,58.6,33.7,30.00,NW,312,15.0,15.0,39,0.00,,SCT060,0.01,VWS V14.01,2013-05-13 21:25:00,
2013-05-13 17:30:00,59.4,36.3,30.00,NNW,338,13.0,15.0,42,0.00,,SCT060,0.01,VWS V14.01,2013-05-13 21:30:00,
2013-05-13 17:35:00,59.0,35.3,30.00,NW,317,9.0,13.0,41,0.00,,SCT060,0.01,VWS V14.01,2013-05-13 21:35:00,
2013-05-13 17:40:00,58.3,34.1,30.00,NW,321,15.0,17.0,40,0.00,,SCT080,0.01,VWS V14.01,2013-05-13 21:40:00,
2013-05-13 17:45:00,58.6,35.0,29.99,NNW,331,7.0,13.0,41,0.00,,SCT080,0.01,VWS V14.01,2013-05-13 21:45:00,
2013-05-13 17:50:00,58.4,32.2,30.00,NW,324,12.0,14.0,37,0.00,,SCT080,0.01,VWS V14.01,2013-05-13 21:50:00,
2013-05-13 17:55:00,58.2,34.0,30.00,NNW,331,4.0,13.0,40,0.00,,SCT080,0.01,VWS V14.01,2013-05-13 21:55:00,
2013-05-13 18:00:00,58.6,34.4,29.99,NW,312,12.0,13.0,40,0.00,,SCT080,0.01,VWS V14.01,2013-05-13 22:00:00,
2013-05-13 18:05:00,58.9,35.3,29.99,North,357,12.0,15.0,41,0.00,,SCT080,0.01,VWS V14.01,2013-05-13 22:05:00,
2013-05-13 18:10:00,59.0,34.7,29.99,NW,317,12.0,15.0,40,0.00,,SCT080,0.01,VWS V14.01,2013-05-13 22:10:00,
2013-05-13 18:15:00,58.9,35.9,30.00,NNW,334,14.0,19.0,42,0.00,,SCT080,0.01,VWS V14.01,2013-05-13 22:15:00,
2013-05-13 18:20:00,58.4,33.6,30.00,NW,317,10.0,20.0,39,0.00,,SCT080,0.01,VWS V14.01,2013-05-13 22:20:00,
2013-05-13 18:25:00,58.5,34.3,29.99,NNW,340,13.0,18.0,40,0.00,,SCT080,0.01,VWS V14.01,2013-05-13 22:25:00,
2013-05-13 18:30:00,58.6,33.1,29.99,NW,317,6.0,13.0,38,0.00,,SCT080,0.01,VWS V14.01,2013-05-13 22:30:00,
2013-05-13 18:35:00,58.5,31.7,30.00,NNW,337,6.0,16.0,36,0.00,,SCT080,0.01,VWS V14.01,2013-05-13 22:35:00,
2013-05-13 18:40:00,58.5,34.3,30.00,NNW,338,12.0,17.0,40,0.00,,BKN080,0.01,VWS V14.01,2013-05-13 22:40:00,
2013-05-13 18:45:00,58.4,33.6,30.00,NNW,328,9.0,15.0,39,0.00,,BKN080,0.01,VWS V14.01,2013-05-13 22:45:00,
2013-05-13 18:50:00,58.2,31.4,30.00,NNW,328,7.0,17.0,36,0.00,,BKN080,0.01,VWS V14.01,2013-05-13 22:50:00,
2013-05-13 18:55:00,58.1,31.3,30.00,NW,321,12.0,19.0,36,0.00,,BKN080,0.01,VWS V14.01,2013-05-13 22:55:00,
2013-05-13 19:00:00,58.0,31.9,30.00,NW,325,12.0,18.0,37,0.00,,BKN080,0.01,VWS V14.01,2013-05-13 23:00:00,
2013-05-13 19:05:00,57.8,30.4,30.00,NW,317,7.0,13.0,35,0.00,,BKN080,0.01,VWS V14.01,2013-05-13 23:05:00,
2013-05-13 19:10:00,57.7,31.6,30.01,WNW,294,5.0,15.0,37,0.00,,BKN080,0.01,VWS V14.01,2013-05-13 23:10:00,
2013-05-13 19:15:00,57.6,32.2,30.01,NNW,348,10.0,14.0,38,0.00,,BKN080,0.01,VWS V14.01,2013-05-13 23:15:00,
2013-05-13 19:20:00,57.4,30.7,30.01,WNW,292,10.0,14.0,36,0.00,,BKN080,0.01,VWS V14.01,2013-05-13 23:20:00,
2013-05-13 19:25:00,57.3,32.6,30.01,North,354,13.0,13.0,39,0.00,,BKN080,0.01,VWS V14.01,2013-05-13 23:25:00,
2013-05-13 19:30:00,57.2,32.5,30.01,North,357,12.0,14.0,39,0.00,,BKN080,0.01,VWS V14.01,2013-05-13 23:30:00,
2013-05-13 19:35:00,57.1,35.4,30.02,NNW,338,7.0,14.0,44,0.00,,BKN080,0.01,VWS V14.01,2013-05-13 23:35:00,
2013-05-13 19:40:00,57.0,32.9,30.02,North,350,11.0,17.0,40,0.00,,SCT080,0.01,VWS V14.01,2013-05-13 23:40:00,
2013-05-13 19:45:00,56.8,35.1,30.02,NNW,342,11.0,16.0,44,0.00,,SCT080,0.01,VWS V14.01,2013-05-13 23:45:00,
2013-05-13 19:50:00,56.9,35.8,30.03,NNW,338,13.0,17.0,45,0.00,,SCT080,0.01,VWS V14.01,2013-05-13 23:50:00,
2013-05-13 19:55:00,56.8,37.3,30.03,NNW,329,6.0,16.0,48,0.00,,SCT080,0.01,VWS V14.01,2013-05-13 23:55:00,
2013-05-13 20:00:00,56.4,31.1,30.03,WNW,296,9.0,12.0,38,0.00,,SCT080,0.01,VWS V14.01,2013-05-14 00:00:00,
2013-05-13 20:05:00,56.3,35.8,30.03,NNW,327,16.0,17.0,46,0.00,,SCT080,0.01,VWS V14.01,2013-05-14 00:05:00,
2013-05-13 20:10:00,56.4,37.0,30.04,NNW,342,10.0,14.0,48,0.00,,FEW080,0.01,VWS V14.01,2013-05-14 00:10:00,
2013-05-13 20:15:00,56.5,36.5,30.04,North,1,16.0,16.0,47,0.00,,FEW080,0.01,VWS V14.01,2013-05-14 00:15:00,
2013-05-13 20:20:00,56.4,34.8,30.04,NNW,339,13.0,17.0,44,0.00,,FEW080,0.01,VWS V14.01,2013-05-14 00:20:00,
2013-05-13 20:25:00,56.4,35.3,30.04,North,352,16.0,18.0,45,0.00,,FEW080,0.01,VWS V14.01,2013-05-14 00:25:00,
2013-05-13 20:30:00,56.6,35.0,30.04,North,352,11.0,18.0,44,0.00,,FEW080,0.01,VWS V14.01,2013-05-14 00:30:00,
2013-05-13 20:35:00,56.4,37.0,30.05,North,355,15.0,17.0,48,0.00,,FEW080,0.01,VWS V14.01,2013-05-14 00:35:00,
2013-05-13 20:40:00,56.5,37.6,30.05,NNW,337,10.0,18.0,49,0.00,,FEW080,0.01,VWS V14.01,2013-05-14 00:40:00,
2013-05-13 20:45:00,56.3,36.3,30.05,North,350,12.0,20.0,47,0.00,,FEW080,0.01,VWS V14.01,2013-05-14 00:45:00,
2013-05-13 20:50:00,56.3,37.9,30.05,NNW,345,14.0,18.0,50,0.00,,FEW080,0.01,VWS V14.01,2013-05-14 00:50:00,
2013-05-13 20:55:00,56.1,36.2,30.06,NNW,336,14.0,22.0,47,0.00,,FEW080,0.01,VWS V14.01,2013-05-14 00:55:00,
2013-05-13 21:00:00,56.0,35.5,30.06,NNW,344,12.0,17.0,46,0.00,,FEW080,0.01,VWS V14.01,2013-05-14 01:00:00,
2013-05-13 21:05:00,56.0,35.5,30.06,NNW,346,13.0,18.0,46,0.00,,FEW080,0.01,VWS V14.01,2013-05-14 01:05:00,
2013-05-13 21:10:00,56.0,37.1,30.06,NNW,342,12.0,16.0,49,0.00,,FEW080,0.01,VWS V14.01,2013-05-14 01:10:00,
2013-05-13 21:15:00,55.9,37.0,30.07,North,5,10.0,14.0,49,0.00,,FEW080,0.01,VWS V14.01,2013-05-14 01:15:00,
2013-05-13 21:20:00,56.0,38.2,30.07,North,354,12.0,15.0,51,0.00,,FEW080,0.01,VWS V14.01,2013-05-14 01:20:00,
2013-05-13 21:26:00,55.8,36.4,30.08,North,350,10.0,14.0,48,0.00,,FEW080,0.01,VWS V14.01,2013-05-14 01:26:00,
2013-05-13 21:30:00,55.8,38.5,30.08,NNE,14,12.0,17.0,52,0.00,,FEW080,0.01,VWS V14.01,2013-05-14 01:30:00,
2013-05-13 21:36:00,55.8,36.9,30.08,North,349,18.0,18.0,49,0.00,,FEW080,0.01,VWS V14.01,2013-05-14 01:36:00,
2013-05-13 21:41:00,55.9,39.0,30.08,NNW,332,10.0,15.0,53,0.00,,SKC,0.01,VWS V14.01,2013-05-14 01:41:00,
2013-05-13 21:45:00,55.8,37.5,30.08,NNW,348,15.0,17.0,50,0.00,,SKC,0.01,VWS V14.01,2013-05-14 01:45:00,
2013-05-13 21:50:00,55.6,36.8,30.09,North,7,14.0,18.0,49,0.00,,SKC,0.01,VWS V14.01,2013-05-14 01:50:00,
2013-05-13 21:55:00,55.6,37.3,30.09,North,7,11.0,18.0,50,0.00,,SKC,0.01,VWS V14.01,2013-05-14 01:55:00,
2013-05-13 22:01:00,55.6,39.7,30.09,North,350,13.0,16.0,55,0.00,,SKC,0.01,VWS V14.01,2013-05-14 02:01:00,
2013-05-13 22:06:00,55.4,36.6,30.09,North,354,11.0,15.0,49,0.00,,SKC,0.01,VWS V14.01,2013-05-14 02:06:00,
2013-05-13 22:11:00,55.2,38.4,30.10,NNE,16,13.0,16.0,53,0.00,,SKC,0.01,VWS V14.01,2013-05-14 02:11:00,
2013-05-13 22:16:00,55.2,36.4,30.10,North,7,13.0,16.0,49,0.00,,SKC,0.01,VWS V14.01,2013-05-14 02:16:00,
2013-05-13 22:23:00,55.1,38.3,30.10,North,349,14.0,17.0,53,0.00,,SKC,0.01,VWS V14.01,2013-05-14 02:23:00,
2013-05-13 22:28:00,55.1,37.8,30.10,North,7,15.0,17.0,52,0.00,,SKC,0.01,VWS V14.01,2013-05-14 02:28:00,
2013-05-13 22:33:00,55.1,37.3,30.10,North,0,15.0,16.0,51,0.00,,SKC,0.01,VWS V14.01,2013-05-14 02:33:00,
2013-05-13 22:38:00,55.0,37.2,30.10,North,5,13.0,18.0,51,0.00,,SKC,0.01,VWS V14.01,2013-05-14 02:38:00,
2013-05-13 22:43:00,54.8,35.5,30.10,North,5,14.0,16.0,48,0.00,,SKC,0.01,VWS V14.01,2013-05-14 02:43:00,
2013-05-13 22:48:00,54.8,38.0,30.10,North,4,13.0,16.0,53,0.00,,SKC,0.01,VWS V14.01,2013-05-14 02:48:00,
2013-05-13 22:53:00,54.8,38.5,30.10,NNE,19,14.0,17.0,54,0.00,,SKC,0.01,VWS V14.01,2013-05-14 02:53:00,
2013-05-13 22:58:00,54.8,36.5,30.10,North,1,12.0,16.0,50,0.00,,SKC,0.01,VWS V14.01,2013-05-14 02:58:00,
2013-05-13 23:03:00,54.6,36.3,30.11,North,7,6.0,14.0,50,0.00,,SKC,0.01,VWS V14.01,2013-05-14 03:03:00,
2013-05-13 23:08:00,54.4,36.2,30.11,North,3,14.0,14.0,50,0.00,,SKC,0.01,VWS V14.01,2013-05-14 03:08:00,
2013-05-13 23:13:00,54.4,37.2,30.11,North,5,13.0,14.0,52,0.00,,SKC,0.01,VWS V14.01,2013-05-14 03:13:00,
2013-05-13 23:18:00,54.2,35.5,30.11,North,8,10.0,14.0,49,0.00,,SKC,0.01,VWS V14.01,2013-05-14 03:18:00,
2013-05-13 23:23:00,54.2,38.4,30.11,North,5,13.0,14.0,55,0.00,,SKC,0.01,VWS V14.01,2013-05-14 03:23:00,
2013-05-13 23:28:00,54.2,37.0,30.11,NNE,16,12.0,15.0,52,0.00,,SKC,0.01,VWS V14.01,2013-05-14 03:28:00,